Location: Poughquag
(41.6090°N, 73.6820°W)
Time: 01:38:18
(UTC-04:00)

Vanguard 2 Rocket - Pass Details

Date: 29 May 2020
Orbit: 556 x 3324 km, 32.9° (Epoch: 06 July)

Event Time Altitude Azimuth Distance (km) Brightness Sun altitude
Rises 19:49:03 0° 270° (W) 5,104 12.1 4.4°
Reaches altitude 10° 19:51:59 10° 266° (W) 4,423 11.6 3.9°
Maximum altitude 20:04:43 54° 194° (SSW) 3,179 9.6 1.8°
Drops below altitude 10° 20:23:27 10° 124° (SE) 6,268 10.5 -1.3°
Enters shadow 20:27:31 - 122° (ESE) 7,080 10.7 -1.9°
Sets 20:28:36 0° 121° (ESE) 7,295 - -2.1°
